GONETS-M 8              
1 40061U 14036A   19266.75025475  .00000014  00000-0  27634-4 0  9995
2 40061  82.5120  34.5045 0029947 112.3332 248.0926 12.42890472237055
GONETS-M 9              
1 40062U 14036B   19266.72259586  .00000008  00000-0 -15589-4 0  9995
2 40062  82.5115  34.5281 0023163 116.7225 243.6229 12.42876636237047
GONETS-M 10             
1 40063U 14036C   19266.69862415  .00000038  00000-0  20351-3 0  9997
2 40063  82.5103  34.4864 0022094 102.4867 257.8687 12.42881195237048
BREEZE-KM R/B           
1 40064U 14036D   19266.71081813  .00000029  00000-0  60255-4 0  9994
2 40064  82.5100 305.7042 0231448 116.5782 245.9241 12.81721460244442